Regional Weather Roundup
Issued by NWS

Home | Current Version | Previous Version | Text Only | Print | Product List | Glossary Off
Versions: 1 2 3 4 5 6 7 8 9 10 11 12 13 14 15 16 17 18 19 20 21 22 23 24 25 26 27 28 29 30 31 32 33 34 35 36 37 38 39 40 41 42 43 44 45 46 47 48 49 50

000
ASUS45 KCYS 242010
RWRWY

WYOMING REGIONAL WEATHER ROUNDUP
NATIONAL WEATHER SERVICE CHEYENNE WY
100 PM MST WED DEC 24 2014

NOTE:  "FAIR" INDICATES FEW OR NO CLOUDS BELOW 12,000 FEET
WITH NO SIGNIFICANT WEATHER AND/OR OBSTRUCTIONS TO VISIBILITY.

WYZ001-242100-
YELLOWSTONE NATIONAL PARK

CITY           SKY/WX    TMP DP  RH WIND       PRES   REMARKS
LK YELLOWSTONE   N/A     22  17  81 VRB3      29.72F
W YELLOWSTONE  NOT AVBL

$$
WYZ002>013-054>058-071-098>099-242100-
NORTHERN WYOMING

CITY           SKY/WX    TMP DP  RH WIND       PRES   REMARKS
JACKSON        CLOUDY    30  25  80 SW5       29.75F WCI  25
CODY           PTSUNNY   39  19  45 E10G18    29.56F WCI  32
GREYBULL       FAIR      25  16  68 NW3       29.64F
WORLAND        FAIR      19  13  77 SW3       29.63F
SHERIDAN       FAIR      37  27  67 S3        29.50F
BUFFALO        FAIR      37  23  56 E8        29.52F WCI  31
GILLETTE       FAIR      40  22  48 SW16      29.52F WCI  31
HULETT           N/A    N/A N/A N/A MISG        N/A
NEWCASTLE      FAIR      36  21  55 SE3       29.61F

$$
WYZ014>020-022>026-101>103-242100-
CENTRAL WYOMING

CITY           SKY/WX    TMP DP  RH WIND       PRES   REMARKS
BIG PINEY      FAIR      26  14  60 E7        29.81F WCI  18
PINEDALE       CLOUDY    23  18  80 E7        29.82F WCI  15
DUBOIS         NOT AVBL
LANDER         FAIR      22  13  68 NW10      29.64F WCI  11
RIVERTON       FAIR      27  16  63 SW6       29.66F WCI  20
CASPER         FAIR      32  19  58 SW21G30   29.67F WCI  20
DOUGLAS        FAIR      43  19  38 W20G33    29.61F

$$
WYZ021-027>030-104>119-242100-
SOUTHERN WYOMING

CITY           SKY/WX    TMP DP  RH WIND       PRES   REMARKS
EVANSTON       FAIR      31  18  58 SW13      29.82F WCI  21
KEMMERER       FAIR      32  19  59 CALM      29.82F
FORT BRIDGER   FAIR      40  26  57 W7        29.83F WCI  35
ROCK SPRINGS   FAIR      34  23  64 SW10      29.83F WCI  26
DIXON          FAIR      29  13  51 SW8       29.98F WCI  21
RAWLINS        CLOUDY    30  19  63 SW15G28   29.80F WCI  19
SARATOGA       FAIR      32  18  55 SE13      29.87F WCI  22
LARAMIE        FAIR      32  15  49 SW18      29.72F WCI  20
CHEYENNE       FAIR      39  18  42 NW10G18   29.68F WCI  32
TORRINGTON     FAIR      46  18  32 W29G43    29.63F
PINE BLUFFS    FAIR      45  16  31 SW10      29.69F

$$



USA.gov is the U.S. government's official web portal to all federal, state and local government web resources and services.